zagg.com alexa rank chart, zagg.com alexa rank daily changes

zagg.com alexa rank chart, zagg.com alexa rank daily changes

zagg.com
Actual rank:
39 589

RANK HISTORY

Date Rank Diff
2017/02/26 39 589 -132
2017/02/25 39 721 +151
2017/02/24 39 570 +146
2017/02/23 39 424 +351
2017/02/22 39 073 -405
2017/02/21 39 478 -203
2017/02/20 39 681 +344
2017/02/19 39 337 -267
2017/02/18 39 604 +696
2017/02/17 38 908 +194
2017/02/16 38 714 +313
2017/02/15 38 401 -3
2017/02/14 38 404 +7
2017/02/13 38 397 +719
2017/02/12 37 678 -539
2017/02/11 38 217 +994
2017/02/10 37 223 +680
2017/02/09 36 543 +95
2017/02/08 36 448 +581
2017/02/07 35 867 +551
2017/02/06 35 316 +722
2017/02/05 34 594 +602
2017/02/04 33 992 +1 001
2017/02/03 32 991 +7
2017/02/02 32 984 +762
2017/02/01 32 222 +635
2017/01/31 31 587 +460
2017/01/30 31 127 +793
2017/01/29 30 334 +709
2017/01/28 29 625 +917
2017/01/27 28 708 -136
2017/01/26 28 844 +31
2017/01/25 28 813 +234
2017/01/24 28 579 -88
2017/01/23 28 667 +5
2017/01/22 28 662 +183
2017/01/21 28 479 -143
2017/01/20 28 622 -4
2017/01/19 28 626 +184
2017/01/18 28 442 +47
2017/01/17 28 395 -20
2017/01/16 28 415 +124
2017/01/15 28 291 +154
2017/01/14 28 137 +132
2017/01/13 28 005 -229
2017/01/12 28 234 +173
2017/01/11 28 061 -417
2017/01/10 28 478 -262
2017/01/09 28 740 -123
2017/01/08 28 863 -179
2017/01/07 29 042 -136
2017/01/06 29 178 -530
2017/01/05 29 708 -93
2017/01/04 29 801 -748
2017/01/03 30 549 +566
2017/01/02 29 983 -50
2017/01/01 30 033 -269
2016/12/31 30 302 +200
2016/12/30 30 102 +494
2016/12/29 29 608 -136
2016/12/28 29 744

WIDGET FOR YOUR SITE

DOMAINS WITH THE NEAREST RANK

Domain Rank
ratsit.se 39 584
filestore.to 39 585
alitrack.ru 39 586
4k.com 39 587
costco.co.uk 39 588
zagg.com 39 589
aracinema.co 39 590
siriust.ru 39 591
xxxnaja.com 39 592
viralstyle.com 39 593
1024mx.org 39 594

DOMAINS WITH THE NEAREST RANK BY TLD .com

Domain Rank
ctoutiao.com 39 579
crtv.com 39 580
taddlr.com 39 582
searchtempest.com 39 583
4k.com 39 587
zagg.com 39 589
xxxnaja.com 39 592
viralstyle.com 39 593
matureshock.com 39 595
humankinetics.com 39 596
kankanwu.com 39 598